Qasigiannguit

KL  EN  DA
ASIAQ
Weather Now GREENLAND SURVEY
Updated [WGT/WGST] Temperature [°C] Wind [m/s] Air pressure [hPa] Relative humidity [%] Precipitation [mm]
Present Wind chill Speed Max
30.11 16:00-10,0-16,74,1 ⇙6,6999600,0
30.11 15:00-9,1-15,54,0 ⇙5,5999590,0
30.11 14:00-8,7-16,15,4 ⇙7,4999560,0
30.11 13:00-8,8-15,84,8 ⇓6,81000650,0
30.11 12:00-7,3-13,94,7 ⇙7,41000670,0
30.11 11:00-5,6-10,73,5 ⇙7,01001670,0
30.11 10:00-5,3-8,72,1 ⇙4,01003740,0
30.11 09:00-4,2-7,21,9 ⇐3,51003670,0
30.11 08:00-6,00,01,2 ⇙2,61004770,0
30.11 07:00-5,8-8,51,5 ⇖3,31005740,0
30.11 06:00-5,1-7,71,6 ⇑4,31005750,0
30.11 05:00-5,6-8,31,6 ⇑3,31006790,0
30.11 04:00-5,4-9,72,7 ⇑3,91005770,0
30.11 03:00-4,2-8,83,3 ⇑5,31006730,0
30.11 02:00-3,7-8,83,9 ⇑6,41006740,0
30.11 01:00-3,7-9,95,6 ⇑7,31006770,0
30.11 00:00-3,4-10,06,5 ⇑8,81006750,0
29.11 23:00-3,2-10,27,3 ⇑9,81006720,0
29.11 22:00-3,0-9,87,2 ⇑10,41005700,0
29.11 21:00-2,8-10,49,1 ⇑12,81005670,0
29.11 20:00-2,6-10,49,8 ⇑12,41004680,0
29.11 19:00-2,6-10,08,6 ⇑11,41004700,0
29.11 18:00-2,5-9,99,0 ⇑12,81003810,0
29.11 17:00-1,9-9,18,8 ⇑11,81003640,0
29.11 16:00-1,9-9,69,9 ⇖14,41001640,0
Position: (68.823667,-51.173861)

[Back]